{"data":{"norad_id":40350,"epoch":"2026-05-24T05:05:35.149632Z","epoch_age_seconds":136349,"freshness":"FRESH","line1":"1 40350U 14083C   26144.21221238 -.00000025  00000+0  00000+0 0  9992","line2":"2 40350   0.0557 356.8794 0002546  62.1963 300.9485  5.00115963208725","mean_motion":5.00115963,"eccentricity":0.0002546,"inclination_deg":0.0557,"raan_deg":356.8794,"arg_perigee_deg":62.1963,"mean_anomaly_deg":300.9485,"bstar":0,"rev_number":20872,"period_min":287.93322079983,"perigee_km":8062.2038565147,"apogee_km":8069.5587506349,"semimajor_km":14444.018303575,"source":"CELESTRAK","updated_at":"2026-05-25T13:38:14.511006Z"}}